Location: Sternwarte-Kirchheim
(50.8752°N, 11.0153°E)
Time: 08:40:38
(UTC+01:00)

ISS - Visible Passes

Search period start: 19 February 2019 00:00
Search period end: 01 March 2019 00:00
Orbit: 403 x 411 km, 51.6° (Epoch: 19 February)

Date Brightness Start Highest point End Pass type
(mag) Time Alt. Az. Time Alt. Az. Time Alt. Az.
23 Feb -0.9 06:34:32 10° S 06:36:41 16° SE 06:38:51 10° E visible
24 Feb -0.6 05:44:54 10° SE 05:45:26 10° SE 05:45:58 10° SE visible
25 Feb -2.0 06:27:00 10° SSW 06:29:53 30° SSE 06:32:48 10° E visible
26 Feb -1.5 05:36:03 10° SSW 05:38:32 20° SE 05:41:00 10° E visible
27 Feb -1.1 04:46:29 12° SSE 04:47:12 13° SE 04:48:46 10° ESE visible
27 Feb -3.1 06:19:58 10° SW 06:23:10 51° SSE 06:26:22 10° E visible
28 Feb -2.5 05:29:55 19° SSW 05:31:42 35° SSE 05:34:43 10° E visible
